TIME,DELAY(SENSOR),PRES,OXYGEN,RAWTEMP,T(OPTODE),TCPHASE,FLUOR,BETA(BETA700),BETA(BETA412),BETA(BETA440),CDOM,C(CSC),ED(ED412.20),ED(ED444.00),ED(ED489.60),ED(ED554.30),LU(LU412.10),LU(LU443.90),LU(LU489.70),LU(LU554.70),COMP,TILTX,TILTY,CHECK
1345777922,5809,927.9299926757812000,35.1318588256835940,556.2877807617188000,4.6008868217468260,56.2271308898925800,54,101,101,79,81,15561,0,0,0,0,2147123885,2147774793,2147576374,2147569508,868,3,13,12677
1345781518,5811,986.8400268554688000,39.1031684875488300,562.2279052734375000,4.4168281555175780,55.6701889038085940,54,100,101,78,82,15560,0,0,0,0,2147122496,2147771675,2147575012,2147568237,554,3,13,35546
1345785118,5811,998.3800048828125000,40.1920204162597660,563.4108886718750000,4.3801360130310060,55.5182685852050800,55,100,101,79,84,15559,0,0,0,0,2147123748,2147774582,2147578048,2147572096,83,3,13,10378
1345788718,5810,1007.8900146484375000,39.2437705993652340,564.3690185546875000,4.3504118919372560,55.6651115417480500,56,99,100,79,83,15544,0,0,0,0,2147121051,2147777270,2147578742,2147571337,3525,3,13,37937
1345792318,5806,1011.4400024414062000,38.9123497009277340,563.9370727539062000,4.3638129234313965,55.7186698913574200,55,98,100,77,83,15542,0,0,0,0,2147120310,2147775488,2147575140,2147571163,3509,3,13,46974
1345795918,5811,1011.9600219726562000,39.2879295349121100,565.0498046875000000,4.3292870521545410,55.6700706481933600,55,104,102,78,83,15542,0,0,0,0,2147120804,2147780004,2147578084,2147570614,3528,3,13,17491
1345799518,5812,1012.7000122070312000,39.1974411010742200,565.2868041992188000,4.3219318389892580,55.6838607788085940,55,99,101,79,82,15542,0,0,0,0,2147122797,2147775195,2147574555,2147571520,68,3,13,2070
1345803118,5810,1014.0499877929688000,39.1219902038574200,565.4382934570312000,4.3172302246093750,55.7007713317871100,55,98,100,78,82,15541,0,0,0,0,2147122688,2147777691,2147581147,2147566564,3533,3,13,10872
1345806718,5810,1016.0700073242188000,39.1847801208496100,565.0797119140625000,4.3283600807189940,55.6886711120605500,55,100,100,78,83,15539,0,0,0,0,2147124708,2147772068,2147573312,2147569234,466,3,13,62977
1345810318,5813,1014.2399902343750000,38.9170608520507800,565.5402832031250000,4.3140621185302730,55.7283706665039060,55,99,102,78,83,15538,0,0,0,0,2147123099,2147771776,2147573860,2147572489,3448,3,13,43650
1345813918,5814,1013.0300292968750000,37.9633483886718750,566.0958862304688000,4.2968177795410160,55.8787193298339840,55,98,101,78,84,15537,0,0,0,0,2147124644,2147776896,2147575661,2147570349,60,3,13,11745
1345817518,5810,1017.4099731445312000,38.5353889465332000,566.2175292968750000,4.2930450439453125,55.7992591857910160,54,98,101,77,83,15540,0,0,0,0,2147120082,2147778340,2147573302,2147568512,320,3,13,2474
1345821118,5810,1015.2299804687500000,38.5997505187988300,566.2584838867188000,4.2917709350585940,55.7902488708496100,55,99,101,77,82,15540,0,0,0,0,2147123748,2147775561,2147576283,2147568530,54,3,13,25641
1345824718,5808,1024.5500488281250000,39.0748596191406250,565.3261718750000000,4.3207092285156250,55.7030715942382800,54,108,101,78,83,15535,0,0,0,0,2147122742,2147780525,2147575460,2147568073,110,3,13,43529
1345828318,5809,1019.2700195312500000,38.4617004394531250,566.0424804687500000,4.2984747886657715,55.8085899353027340,54,98,100,78,83,15537,0,0,0,0,2147120274,2147780224,2147572425,2147572672,3557,3,13,17293
1345831918,5809,1018.9099731445312000,38.4942207336425800,565.9682006835938000,4.3007831573486330,55.8029899597168000,56,99,100,82,83,15537,0,0,0,0,2147124013,2147774573,2147572891,2147572123,226,3,13,60340
1345835518,5809,1022.0900268554688000,38.1426315307617200,567.0756835937500000,4.2663969993591310,55.8619918823242200,55,99,109,78,83,15534,0,0,0,0,2147121581,2147778395,2147575488,2147569618,539,3,13,30501
1345839118,5809,1026.2099609375000000,38.7952804565429700,566.9345703125000000,4.2707791328430180,55.7619209289550800,54,101,101,78,83,15535,0,0,0,0,2147119625,2147776640,2147573412,2147571163,2370,3,13,45910
1345842718,5810,1022.0200195312500000,38.2505989074707000,566.0280761718750000,4.2989220619201660,55.8351707458496100,55,99,101,78,83,15533,0,0,0,0,2147121526,2147774372,2147575789,2147565549,3475,3,13,10431
1345846318,5809,1019.0100097656250000,38.3734092712402340,567.0380249023438000,4.2675690650939940,55.8336791992187500,55,100,100,79,83,15535,0,0,0,0,2147122258,2147773970,2147573860,2147569865,3144,3,13,23883
1345849918,5809,1023.3699951171875000,38.5774497985839840,567.2199096679688000,4.2619209289550780,55.8021812438964840,55,101,100,78,82,15535,0,0,0,0,2147124397,2147777234,2147570779,2147570038,3558,3,13,26804
1345853518,5811,1019.7399902343750000,38.5487098693847660,566.9030761718750000,4.2717590332031250,55.7982101440429700,55,100,101,78,84,15534,0,0,0,0,2147122624,2147777142,2147576109,2147571382,37,3,13,43024
1345857118,5810,1021.7500000000000000,38.2473983764648440,567.0275878906250000,4.2678928375244140,55.8528709411621100,55,98,101,78,83,15531,0,0,0,0,2147123602,2147775442,2147574125,2147571035,3394,3,13,16222
1345860718,5807,1030.7700195312500000,38.7087898254394500,565.9354248046875000,4.3017997741699220,55.7686386108398440,55,100,101,78,82,15533,0,0,0,0,2147121764,2147777728,2147574774,2147568713,302,3,13,6867
1345864318,5810,1030.2800292968750000,38.1320304870605500,565.2479248046875000,4.3231410980224610,55.8495101928710940,55,98,100,78,83,15533,0,0,0,0,2147124297,2147777042,2147573138,2147569197,161,3,13,10267
1345867918,5809,1028.6600341796875000,38.4470405578613300,564.9395141601562000,4.3327121734619140,55.7940406799316400,56,98,101,78,83,15534,0,0,0,0,2147122614,2147777956,2147577225,2147571364,354,3,13,50288
1345871518,5811,1033.1999511718750000,38.4723205566406250,565.2744750976562000,4.3223128318786620,55.7978515625000000,55,98,101,78,83,15534,0,0,0,0,2147120164,2147773330,2147573321,2147569846,2902,3,13,27639
1345875118,5808,1027.4499511718750000,38.4052581787109400,565.1021118164062000,4.3276648521423340,55.8041610717773440,55,99,100,78,83,15534,0,0,0,0,2147122761,2147775369,2147572864,2147571108,137,3,13,12048
1345878718,5808,1027.9300537109375000,38.3589515686035160,566.1345825195312000,4.2956161499023440,55.8205490112304700,55,100,102,77,82,15534,0,0,0,0,2147125120,2147770861,2147576941,2147569691,801,3,13,8678
1345882318,5811,1026.3599853515625000,37.9074401855468750,566.2883911132812000,4.2908420562744140,55.8955497741699200,55,98,101,78,84,15529,0,0,0,0,2147119652,2147776886,2147575890,2147567414,37,3,13,15263
1345885918,5809,1027.6500244140625000,38.6965599060058600,566.7188720703125000,4.2774767875671390,55.7802810668945300,55,99,101,81,83,15533,0,0,0,0,2147119744,2147774134,2147574976,2147566921,3551,3,13,41645
1345889518,5808,1025.1999511718750000,38.6375389099121100,566.3052978515625000,4.2903180122375490,55.7849617004394500,55,100,101,77,83,15531,0,0,0,0,2147121234,2147774564,2147574985,2147569682,263,3,13,49386
1345893118,5813,1031.3599853515625000,38.6762313842773440,566.0233154296875000,4.2990741729736330,55.7706298828125000,55,104,100,78,82,15532,0,0,0,0,2147124626,2147771904,2147574838,2147571209,98,3,13,7270
1345896718,5810,1025.4399414062500000,38.6762695312500000,566.0031127929688000,4.2996978759765625,55.7756690979003900,55,101,102,78,82,15530,0,0,0,0,2147124507,2147775478,2147574884,2147572178,3529,3,13,15474
1345900318,5809,1025.5500488281250000,37.7246894836425800,567.3886718750000000,4.2566781044006350,55.9292907714843750,56,101,101,78,83,15528,0,0,0,0,2147122834,2147780086,2147574244,2147572123,691,3,13,28760
1345903918,5808,1031.3800048828125000,37.9176788330078100,567.5247192382812000,4.2524552345275880,55.9044418334960940,55,98,101,78,82,15529,0,0,0,0,2147122953,2147778148,2147578203,2147571117,247,3,13,15131
1345907518,5808,1030.0300292968750000,38.6598091125488300,566.2896728515625000,4.2908020019531250,55.7788581848144500,55,98,100,79,83,15530,0,0,0,0,2147122669,2147773942,2147574409,2147571062,199,3,13,7557
1345911118,5808,1033.2500000000000000,38.4964599609375000,566.4539794921875000,4.2857022285461430,55.8077507019043000,55,98,103,78,83,15530,0,0,0,0,2147122166,2147772900,2147572096,2147569380,3501,3,13,165
1345914718,5811,1032.8000488281250000,38.5899696350097660,566.7147827148438000,4.2776031494140625,55.7932014465332000,55,101,103,78,83,15529,0,0,0,0,2147122605,2147773604,2147572050,2147569600,1747,3,13,42410
1345918318,5810,1034.1899414062500000,38.4473495483398440,566.8364257812500000,4.2738299369812010,55.8168411254882800,56,99,100,78,82,15529,0,0,0,0,2147120877,2147771757,2147575716,2147569801,249,3,13,37054
1345921918,5810,1018.3499755859375000,38.1610603332519500,565.6002197265625000,4.3122057914733890,55.8439292907714840,55,101,101,78,83,15526,0,0,0,0,2147123163,2147772315,2147572864,2147569938,115,3,13,56355
1345922755,5808,1018.2600097656250000,37.8616905212402340,565.8184814453125000,4.3054289817810060,55.8903388977050800,56,98,100,77,83,15525,0,0,0,0,2147122477,2147771309,2147577024,2147568886,296,3,13,56589
